DECAYED

STARLINK-1627, 46168 (Decayed)

Orbit data source: Space-Track

STARLINK-1627, 46168 was a payload satellite owned by SpaceX/Seattle (US) in LEO that was launched on Tue, 18 Aug 2020 UTC via an FALCON 9 launch vehicle from the Air Force Eastern Test Range (AFETR). Payload-class satellites include a variety of spacecraft equipped with specific instruments for various scientific and technological missions. These include communications satellites like Starlink; space stations such as the ISS; scientific satellites like the Hubble; Earth observation satellites from companies like Planet Labs, Umbra, and HawkEye 360; GPS; miniature CubeSats for education and research; and military/defense satellites.

Not visible in the next 10 days
Identifier
46168, 2020-057BD
Orbit
Decayed
Country
Flag of USUS
Related business
Manufacturer
SpaceX/Seattle
Mission
Decayed Commercial Communications
Bus & Motor
STARLINK, Unknown motor
Mass
260 kg wet, ~248 kg dry
Launch date (UTC)
2020-08-18 (6 years ago)
Launch vehicle
FALCON 9
Launch site
Air Force Eastern Test Range (AFETR)
Object type
Payload
Rocket body
Debris
Shape & HBR
Box + 1 Pan, 10.1 m
Radar Cross Section
13.562 m², Large (>1 m²)

Expand to show TLE details & history
Last TLE update: 1 month ago

TLE from 1 month ago
0 STARLINK-1627
1 46168U 20057BD  26144.61429156  .12729423  12590-4  24284-3 0  9994
2 46168  53.0143 198.5600 0006133 288.0143  72.0238 16.46995398319422
Epoch: 2026-05-24T14:44Z
TLE epoch observation values (Epoch: 2026-05-24T14:44:34.790Z)
Latitude
Longitude
95.20114°
Altitude
146.955 km
Speed
7.82 km/s
True Right ascension
13h 14m 14s
True Declination
0° 00' 00"
Sunlit
Object was in full shadow at epoch
Visualization orbit readout
Latitude
Unknown
Longitude
Unknown
Altitude
Unknown
Speed
Unknown
Apparent Right ascension
Unknown
Apparent Declination
Unknown
Sunlit
N/A
Visualization observer readout
Local Sidereal Time
02:13:22
Azimuth
Unknown
Elevation
Unknown
Doppler factor
Unknown
Orbital elements
Apogee altitude
151.556 km
Perigee altitude
143.551 km
Semi-major axis
6,525.69 km
Eccentricity
0.00061
Inclination
53.0143°
RAAN
198.56°
Arg. of periapsis
288.0143°
True anomaly
72.09066°
Mean anomaly
72.0238°
Eccentric anomaly
72.05723°
Mean motion
4.11721 °/min
Orbital period
87.44 mins
BSTAR
0.00024284
Loading maneuver chart data...
Computing Atmospheric mass density...

Documentation

Showing up to 5 results
|